| time (UTC) | temp C | wind direction | speed KPH | gust KPH | rain 1hr cm | rain 24hr cm | rain mn cm | humidity % | barometer mb |
| 20260504224642 | 21 | 304 | 0.0 | 0.0 | 0.00 | 0.00 | 0.00 | 65 | 1012.4 |
| 20260504224138 | 21 | 304 | 0.0 | 0.0 | 0.00 | 0.00 | 0.00 | 65 | 1012.4 |
| 20260504223636 | 21 | 307 | 0.0 | 1.6 | 0.00 | 0.00 | 0.00 | 67 | 1012.5 |
| 20260504223131 | 21 | 300 | 0.0 | 0.0 | 0.00 | 0.00 | 0.00 | 65 | 1012.4 |
| 20260504222628 | 21 | 308 | 3.2 | 3.2 | 0.00 | 0.00 | 0.00 | 67 | 1012.6 |
| 20260504222125 | 21 | 294 | 0.0 | 1.6 | 0.00 | 0.00 | 0.00 | 67 | 1012.4 |
| 20260504221622 | 21 | 298 | 3.2 | 3.2 | 0.00 | 0.00 | 0.00 | 66 | 1012.8 |
| 20260504221120 | 21 | 305 | 1.6 | 3.2 | 0.00 | 0.00 | 0.00 | 65 | 1012.5 |
| 20260504220616 | 21 | 306 | 3.2 | 3.2 | 0.00 | 0.00 | 0.00 | 66 | 1012.7 |
| 20260504220114 | 21 | 310 | 1.6 | 1.6 | 0.00 | 0.00 | 0.00 | 67 | 1012.9 |
| 20260504215609 | 21 | 314 | 0.0 | 0.0 | 0.00 | 0.00 | 0.00 | 70 | 1012.8 |
| 20260504215107 | 21 | 288 | 0.0 | 0.0 | 0.00 | 0.00 | 0.00 | 66 | 1012.9 |
| 20260504214603 | 21 | 243 | 1.6 | 3.2 | 0.00 | 0.00 | 0.00 | 69 | 1013.0 |
| 20260504214059 | 20 | 304 | 0.0 | 1.6 | 0.00 | 0.00 | 0.00 | 68 | 1013.1 |
| 20260504213556 | 20 | 315 | 1.6 | 1.6 | 0.00 | 0.00 | 0.00 | 70 | 1013.2 |
| 20260504213053 | 20 | 102 | 1.6 | 4.8 | 0.00 | 0.00 | 0.00 | 69 | 1013.1 |
| 20260504212548 | 20 | 280 | 0.0 | 0.0 | 0.00 | 0.00 | 0.00 | 68 | 1013.1 |
| 20260504212046 | 20 | 300 | 0.0 | 0.0 | 0.00 | 0.00 | 0.00 | 68 | 1013.3 |
| 20260504211543 | 20 | 170 | 1.6 | 3.2 | 0.00 | 0.00 | 0.00 | 70 | 1013.6 |
| 20260504211040 | 20 | 100 | 1.6 | 3.2 | 0.00 | 0.00 | 0.00 | 72 | 1013.3 |
| 20260504210537 | 20 | 108 | 3.2 | 4.8 | 0.00 | 0.00 | 0.00 | 68 | 1013.7 |
| 20260504210033 | 20 | 289 | 3.2 | 3.2 | 0.00 | 0.00 | 0.00 | 70 | 1013.6 |
| 20260504205531 | 20 | 312 | 0.0 | 0.0 | 0.00 | 0.00 | 0.00 | 69 | 1013.6 |
| 20260504205029 | 20 | 321 | 0.0 | 0.0 | 0.00 | 0.00 | 0.00 | 70 | 1013.7 |
| 20260504204527 | 19 | 283 | 1.6 | 3.2 | 0.00 | 0.00 | 0.00 | 69 | 1013.7 |
| 20260504204026 | 18 | 312 | 1.6 | 1.6 | 0.00 | 0.00 | 0.00 | 72 | 1014.1 |
| 20260504203524 | 20 | 314 | 6.4 | 9.7 | 0.00 | 0.00 | 0.00 | 68 | 1014.0 |
| 20260504203021 | 20 | 246 | 0.0 | 0.0 | 0.00 | 0.00 | 0.00 | 72 | 1014.0 |
| 20260504202516 | 19 | 336 | 0.0 | 0.0 | 0.00 | 0.00 | 0.00 | 70 | 1014.0 |
| 20260504202013 | 20 | 285 | 0.0 | 1.6 | 0.00 | 0.00 | 0.00 | 70 | 1014.2 |
| 20260504201510 | 19 | 317 | 0.0 | 1.6 | 0.00 | 0.00 | 0.00 | 72 | 1014.1 |
| 20260504201008 | 18 | 286 | 0.0 | 0.0 | 0.00 | 0.00 | 0.00 | 72 | 1014.2 |
| 20260504200504 | 17 | 301 | 1.6 | 1.6 | 0.00 | 0.00 | 0.00 | 75 | 1014.2 |
| 20260504200001 | 19 | 310 | 4.8 | 9.7 | 0.00 | 0.00 | 0.00 | 70 | 1014.4 |
| 20260504195457 | 19 | 317 | 0.0 | 0.0 | 0.00 | 0.00 | 0.00 | 69 | 1014.6 |
| 20260504194954 | 18 | 315 | 1.6 | 1.6 | 0.00 | 0.00 | 0.00 | 74 | 1014.4 |
| 20260504194450 | 19 | 111 | 4.8 | 4.8 | 0.00 | 0.00 | 0.00 | 71 | 1014.6 |
| 20260504193946 | 18 | 271 | 0.0 | 0.0 | 0.00 | 0.00 | 0.00 | 74 | 1014.5 |
| 20260504193443 | 17 | 304 | 0.0 | 1.6 | 0.00 | 0.00 | 0.00 | 74 | 1014.3 |
| 20260504192942 | 20 | 293 | 0.0 | 1.6 | 0.00 | 0.00 | 0.00 | 67 | 1014.4 |
| 20260504192438 | 19 | 298 | 0.0 | 0.0 | 0.00 | 0.00 | 0.00 | 71 | 1014.7 |
| 20260504191938 | 18 | 290 | 0.0 | 0.0 | 0.00 | 0.00 | 0.00 | 73 | 1014.5 |
| 20260504191435 | 17 | 308 | 1.6 | 1.6 | 0.00 | 0.00 | 0.00 | 73 | 1014.6 |
| 20260504190930 | 16 | 212 | 1.6 | 3.2 | 0.00 | 0.00 | 0.00 | 79 | 1014.6 |
| 20260504190426 | 16 | 122 | 1.6 | 1.6 | 0.00 | 0.00 | 0.00 | 78 | 1014.9 |
| 20260504185923 | 16 | 280 | 1.6 | 1.6 | 0.00 | 0.00 | 0.00 | 78 | 1014.6 |
| 20260504185420 | 16 | 297 | 4.8 | 8.0 | 0.00 | 0.00 | 0.00 | 78 | 1014.8 |
| 20260504184916 | 17 | 302 | 0.0 | 3.2 | 0.00 | 0.00 | 0.00 | 76 | 1014.8 |
| 20260504184412 | 16 | 300 | 0.0 | 0.0 | 0.00 | 0.00 | 0.00 | 79 | 1014.9 |
| 20260504183908 | 16 | 303 | 3.2 | 3.2 | 0.00 | 0.00 | 0.00 | 78 | 1014.9 |
| 20260504183405 | 16 | 304 | 0.0 | 1.6 | 0.00 | 0.00 | 0.00 | 80 | 1014.7 |
| 20260504182903 | 16 | 299 | 1.6 | 1.6 | 0.00 | 0.00 | 0.00 | 77 | 1014.8 |
| 20260504182400 | 16 | 300 | 1.6 | 1.6 | 0.00 | 0.00 | 0.00 | 78 | 1014.7 |
| 20260504181856 | 16 | 313 | 0.0 | 0.0 | 0.00 | 0.00 | 0.00 | 81 | 1014.8 |
| 20260504181354 | 15 | 311 | 0.0 | 0.0 | 0.00 | 0.00 | 0.00 | 81 | 1014.6 |
| 20260504180853 | 15 | 299 | 4.8 | 4.8 | 0.00 | 0.00 | 0.00 | 80 | 1014.8 |
| 20260504180351 | 15 | 310 | 1.6 | 3.2 | 0.00 | 0.00 | 0.00 | 81 | 1014.7 |
| 20260504175849 | 16 | 310 | 3.2 | 4.8 | 0.00 | 0.00 | 0.00 | 79 | 1014.7 |
| 20260504175345 | 15 | 299 | 0.0 | 0.0 | 0.00 | 0.00 | 0.00 | 83 | 1014.9 |
| 20260504174844 | 15 | 305 | 0.0 | 1.6 | 0.00 | 0.00 | 0.00 | 82 | 1014.6 |
| 20260504174341 | 15 | 318 | 0.0 | 1.6 | 0.00 | 0.00 | 0.00 | 82 | 1014.7 |
| 20260504173838 | 15 | 307 | 1.6 | 3.2 | 0.00 | 0.00 | 0.00 | 82 | 1014.7 |
| 20260504173334 | 15 | 314 | 1.6 | 3.2 | 0.00 | 0.00 | 0.00 | 82 | 1014.6 |
| 20260504172831 | 15 | 303 | 0.0 | 1.6 | 0.00 | 0.00 | 0.00 | 82 | 1014.8 |
| 20260504172328 | 15 | 292 | 0.0 | 0.0 | 0.00 | 0.00 | 0.00 | 83 | 1014.8 |
| 20260504171824 | 15 | 308 | 1.6 | 1.6 | 0.00 | 0.00 | 0.00 | 83 | 1014.7 |
| 20260504171321 | 15 | 305 | 1.6 | 1.6 | 0.00 | 0.00 | 0.00 | 83 | 1014.8 |
| 20260504170819 | 15 | 293 | 1.6 | 1.6 | 0.00 | 0.00 | 0.00 | 84 | 1014.9 |
| 20260504170315 | 15 | 314 | 1.6 | 1.6 | 0.00 | 0.00 | 0.00 | 84 | 1014.5 |
| 20260504160233 | 14 | 297 | 0.0 | 0.0 | 0.00 | 0.00 | 0.00 | 86 | 1014.8 |
| 20260504150659 | 13 | 326 | 3.2 | 3.2 | 0.00 | 0.00 | 0.00 | 88 | 1014.4 |
| 20260504150156 | 13 | 290 | 1.6 | 1.6 | 0.00 | 0.00 | 0.00 | 88 | 1014.3 |
| 20260504141124 | 13 | 291 | 0.0 | 0.0 | 0.00 | 0.00 | 0.00 | 86 | 1013.6 |
| 20260504140621 | 13 | 290 | 0.0 | 1.6 | 0.00 | 0.00 | 0.00 | 89 | 1013.6 |
| 20260504140117 | 12 | 297 | 0.0 | 0.0 | 0.00 | 0.00 | 0.00 | 92 | 1013.6 |
| 20260504130545 | 11 | 288 | 0.0 | 0.0 | 0.00 | 0.00 | 0.00 | 93 | 1012.7 |
| 20260504110433 | 13 | 287 | 0.0 | 0.0 | 0.00 | 0.00 | 0.00 | 84 | 1011.2 |
| 20260504100355 | 15 | 287 | 0.0 | 0.0 | 0.00 | 0.00 | 0.00 | 80 | 1010.3 |
| 20260504081748 | 16 | 294 | 0.0 | 0.0 | 0.00 | 0.00 | 0.00 | 73 | 1009.6 |
| 20260504081245 | 16 | 294 | 0.0 | 0.0 | 0.00 | 0.00 | 0.00 | 72 | 1009.6 |
| 20260504080741 | 16 | 294 | 0.0 | 0.0 | 0.00 | 0.00 | 0.00 | 71 | 1009.5 |
| 20260504080238 | 16 | 294 | 0.0 | 0.0 | 0.00 | 0.00 | 0.00 | 72 | 1009.3 |
| 20260504070205 | 18 | 294 | 0.0 | 1.6 | 0.00 | 0.00 | 0.00 | 63 | 1009.0 |
| 20260504060126 | 21 | 306 | 0.0 | 0.0 | 0.00 | 0.00 | 0.00 | 51 | 1008.5 |
| 20260504050554 | 23 | 308 | 0.0 | 0.0 | 0.00 | 0.00 | 0.00 | 44 | 1008.2 |
| 20260504045548 | 23 | 310 | 1.6 | 1.6 | 0.00 | 0.00 | 0.00 | 47 | 1008.5 |
| 20260504045043 | 23 | 295 | 0.0 | 1.6 | 0.00 | 0.00 | 0.00 | 47 | 1008.4 |
| 20260504044541 | 23 | 304 | 0.0 | 0.0 | 0.00 | 0.00 | 0.00 | 46 | 1008.5 |
| 20260504044038 | 23 | 311 | 0.0 | 0.0 | 0.00 | 0.00 | 0.00 | 45 | 1008.3 |
| 20260504043534 | 23 | 307 | 0.0 | 1.6 | 0.00 | 0.00 | 0.00 | 48 | 1008.2 |
| 20260504043032 | 23 | 285 | 0.0 | 0.0 | 0.00 | 0.00 | 0.00 | 48 | 1008.1 |
| 20260504042529 | 23 | 291 | 0.0 | 0.0 | 0.00 | 0.00 | 0.00 | 49 | 1008.3 |
| 20260504042026 | 23 | 290 | 0.0 | 1.6 | 0.00 | 0.00 | 0.00 | 48 | 1008.1 |
| 20260504041522 | 23 | 301 | 0.0 | 0.0 | 0.00 | 0.00 | 0.00 | 48 | 1008.0 |
| 20260504041018 | 24 | 304 | 0.0 | 0.0 | 0.00 | 0.00 | 0.00 | 47 | 1008.1 |
| 20260504040516 | 24 | 302 | 0.0 | 0.0 | 0.00 | 0.00 | 0.00 | 47 | 1008.1 |
| 20260504040012 | 24 | 302 | 0.0 | 0.0 | 0.00 | 0.00 | 0.00 | 46 | 1008.1 |
| 20260504035509 | 25 | 291 | 0.0 | 0.0 | 0.00 | 0.00 | 0.00 | 46 | 1008.0 |
| 20260504035005 | 25 | 295 | 0.0 | 0.0 | 0.00 | 0.00 | 0.00 | 45 | 1007.7 |
| 20260504034503 | 25 | 281 | 0.0 | 0.0 | 0.00 | 0.00 | 0.00 | 45 | 1007.9 |
| 20260504034000 | 25 | 293 | 0.0 | 0.0 | 0.00 | 0.00 | 0.00 | 44 | 1007.6 |
| 20260504033457 | 25 | 313 | 0.0 | 0.0 | 0.00 | 0.00 | 0.00 | 43 | 1007.7 |
| 20260504032955 | 25 | 283 | 0.0 | 0.0 | 0.00 | 0.00 | 0.00 | 43 | 1007.4 |
| 20260504032452 | 26 | 283 | 1.6 | 1.6 | 0.00 | 0.00 | 0.00 | 43 | 1007.5 |
| 20260504031948 | 26 | 283 | 0.0 | 0.0 | 0.00 | 0.00 | 0.00 | 42 | 1007.6 |
| 20260504031445 | 26 | 303 | 0.0 | 1.6 | 0.00 | 0.00 | 0.00 | 42 | 1007.6 |
| 20260504030942 | 26 | 298 | 0.0 | 0.0 | 0.00 | 0.00 | 0.00 | 40 | 1007.3 |
| 20260504030439 | 26 | 313 | 0.0 | 1.6 | 0.00 | 0.00 | 0.00 | 40 | 1007.5 |
| 20260504025934 | 27 | 303 | 0.0 | 0.0 | 0.00 | 0.00 | 0.00 | 39 | 1007.6 |
| 20260504025432 | 27 | 297 | 0.0 | 1.6 | 0.00 | 0.00 | 0.00 | 37 | 1007.5 |
| 20260504024929 | 27 | 299 | 0.0 | 0.0 | 0.00 | 0.00 | 0.00 | 36 | 1007.3 |
| 20260504024426 | 28 | 295 | 0.0 | 0.0 | 0.00 | 0.00 | 0.00 | 36 | 1007.4 |
| 20260504023923 | 28 | 279 | 1.6 | 1.6 | 0.00 | 0.00 | 0.00 | 34 | 1007.5 |
| 20260504023419 | 28 | 293 | 0.0 | 0.0 | 0.00 | 0.00 | 0.00 | 35 | 1007.5 |
| 20260504022915 | 29 | 341 | 0.0 | 0.0 | 0.00 | 0.00 | 0.00 | 35 | 1007.3 |
| 20260504022412 | 30 | 284 | 0.0 | 0.0 | 0.00 | 0.00 | 0.00 | 33 | 1007.6 |
| 20260504021908 | 30 | 317 | 0.0 | 0.0 | 0.00 | 0.00 | 0.00 | 34 | 1007.5 |
| 20260504021405 | 30 | 308 | 1.6 | 1.6 | 0.00 | 0.00 | 0.00 | 33 | 1007.6 |
| 20260504020903 | 31 | 308 | 1.6 | 1.6 | 0.00 | 0.00 | 0.00 | 32 | 1007.6 |
| 20260504020359 | 31 | 277 | 1.6 | 1.6 | 0.00 | 0.00 | 0.00 | 31 | 1007.8 |
| 20260504015855 | 31 | 299 | 1.6 | 1.6 | 0.00 | 0.00 | 0.00 | 33 | 1007.8 |
| 20260504015351 | 31 | 302 | 0.0 | 1.6 | 0.00 | 0.00 | 0.00 | 31 | 1007.8 |
| 20260504014847 | 31 | 318 | 0.0 | 0.0 | 0.00 | 0.00 | 0.00 | 32 | 1008.1 |
| 20260504014343 | 31 | 294 | 0.0 | 0.0 | 0.00 | 0.00 | 0.00 | 32 | 1008.0 |
| 20260504013841 | 30 | 308 | 3.2 | 3.2 | 0.00 | 0.00 | 0.00 | 31 | 1007.6 |
| 20260504013339 | 30 | 314 | 1.6 | 3.2 | 0.00 | 0.00 | 0.00 | 32 | 1007.5 |
| 20260504012836 | 30 | 294 | 1.6 | 1.6 | 0.00 | 0.00 | 0.00 | 31 | 1007.6 |
| 20260504012333 | 31 | 294 | 0.0 | 1.6 | 0.00 | 0.00 | 0.00 | 32 | 1007.7 |
| 20260504011831 | 31 | 303 | 0.0 | 0.0 | 0.00 | 0.00 | 0.00 | 30 | 1007.7 |
| 20260504011327 | 31 | 308 | 0.0 | 0.0 | 0.00 | 0.00 | 0.00 | 33 | 1007.6 |
| 20260504010823 | 31 | 305 | 1.6 | 3.2 | 0.00 | 0.00 | 0.00 | 31 | 1007.7 |
| 20260504010319 | 31 | 316 | 1.6 | 1.6 | 0.00 | 0.00 | 0.00 | 30 | 1007.8 |
| 20260504005815 | 31 | 292 | 3.2 | 4.8 | 0.00 | 0.00 | 0.00 | 29 | 1007.7 |
| 20260504005312 | 31 | 295 | 0.0 | 0.0 | 0.00 | 0.00 | 0.00 | 30 | 1007.8 |
| 20260504004810 | 31 | 298 | 0.0 | 0.0 | 0.00 | 0.00 | 0.00 | 31 | 1008.0 |
| 20260504004308 | 31 | 306 | 1.6 | 1.6 | 0.00 | 0.00 | 0.00 | 29 | 1007.6 |
| 20260504003804 | 31 | 294 | 3.2 | 4.8 | 0.00 | 0.00 | 0.00 | 28 | 1007.8 |
| 20260504003301 | 31 | 295 | 0.0 | 1.6 | 0.00 | 0.00 | 0.00 | 30 | 1007.7 |
| 20260504002757 | 31 | 305 | 3.2 | 3.2 | 0.00 | 0.00 | 0.00 | 31 | 1007.8 |
| 20260504002254 | 31 | 334 | 1.6 | 3.2 | 0.00 | 0.00 | 0.00 | 30 | 1007.9 |
| 20260504001752 | 31 | 318 | 0.0 | 1.6 | 0.00 | 0.00 | 0.00 | 29 | 1007.8 |
| 20260504001249 | 31 | 146 | 4.8 | 8.0 | 0.00 | 0.00 | 0.00 | 29 | 1007.9 |
| 20260504000746 | 31 | 306 | 0.0 | 0.0 | 0.00 | 0.00 | 0.00 | 30 | 1008.0 |
| 20260504000243 | 31 | 318 | 1.6 | 3.2 | 0.00 | 0.00 | 0.00 | 30 | 1007.8 |
| 20260503235741 | 31 | 300 | 3.2 | 3.2 | 0.00 | 0.00 | 0.00 | 29 | 1008.0 |
| 20260503235237 | 31 | 302 | 1.6 | 1.6 | 0.00 | 0.00 | 0.00 | 32 | 1007.8 |
| 20260503234735 | 31 | 281 | 1.6 | 1.6 | 0.00 | 0.00 | 0.00 | 28 | 1008.0 |
| 20260503234233 | 31 | 299 | 1.6 | 1.6 | 0.00 | 0.00 | 0.00 | 28 | 1008.1 |
| 20260503233730 | 31 | 336 | 0.0 | 1.6 | 0.00 | 0.00 | 0.00 | 28 | 1008.1 |
| 20260503233225 | 31 | 321 | 1.6 | 3.2 | 0.00 | 0.00 | 0.00 | 29 | 1008.2 |